Location: Unspecified
(31.8366°N, 0.0000°E)
Time: 03:58:25
(UTC+00:00)

NOAA 16 DEB - Visible Passes

Search period start: 04 April 2026 00:00
Search period end: 14 April 2026 00:00
Orbit: 810 x 848 km, 98.7° (Epoch: 27 March)

Date Brightness Start Highest point End Pass type
(mag) Time Alt. Az. Time Alt. Az. Time Alt. Az.
4 Apr ? 19:26:24 10° SSE 19:31:42 76° ENE 19:37:00 10° N visible
5 Apr ? 19:08:29 10° SSE 19:13:36 49° ENE 19:18:41 10° N visible
5 Apr ? 20:50:57 10° SW 20:54:02 16° W 20:57:08 10° WNW visible
6 Apr ? 18:50:51 10° SE 18:55:31 33° ENE 19:00:12 10° N visible
6 Apr ? 20:31:30 10° SSW 20:35:44 24° W 20:39:59 10° NW visible
7 Apr ? 20:12:36 10° SSW 20:17:28 37° W 20:22:21 10° NNW visible
8 Apr ? 19:54:02 10° S 19:59:14 57° W 20:04:27 10° NNW visible
9 Apr ? 19:35:44 10° SSE 19:41:02 87° WSW 19:46:22 10° NNW visible
10 Apr ? 19:17:40 10° SSE 19:22:53 62° ENE 19:28:06 10° N visible
10 Apr ? 21:01:26 10° WSW 21:03:27 12° W 21:05:29 10° WNW visible
11 Apr ? 18:59:51 10° SE 19:04:46 40° ENE 19:09:41 10° N visible
11 Apr ? 20:41:23 10° SW 20:45:06 19° W 20:48:50 10° NW visible
12 Apr ? 20:22:13 10° SSW 20:26:47 29° W 20:31:22 10° NW visible
13 Apr ? 20:03:28 10° S 20:08:30 45° W 20:13:35 10° NNW visible
